User: anonymous   Login
Location: Coleman
(45.0650°N, 88.0340°W)
Time: 00:11:04
(UTC-06:00)
Language:

Iridium 97 - Orbit

View from above orbital plane
View from above orbital plane
View from above satellite
View from above satellite

Ground track
Ground track

The orbit data is extracted from the following two-line orbital elements,

1 27450U 02031A   17052.39551700  .00000138  00000-0  42092-4 0  9992
2 27450  86.3989   7.2962 0001983  88.0491 272.0932 14.34215780773636
Epoch (UTC): 21 February 2017 09:29:32
Eccentricity: 0.0001983
inclination: 86.3989°
perigee height: 776 km
apogee height: 779 km
right ascension of ascending node: 7.2962°
argument of perigee: 88.0491°
revolutions per day: 14.34215780
mean anomaly at epoch: 272.0932°
orbit number at epoch: 77363

The dashed part of the orbit path shows where the satellite is in the earth's shadow,  

DLR